Kezdőlap
METAR-TAF:

METAR-TAF

Repülőterek :

Schenck Field

Clarinda, Iowa, Amerikai Egyesült Államok

földrajzi szélesség: 40-43N, földrajzi hosszúság: 095-02W, magasság: 303 m

Jelenlegi meteorológiai megfigyelések

A jelentés 21 perccel ezelõtt készült, 02:55 UTC
Szélcsend
Hőmérséklet -5°C
Páratartalom 79%
Légköri nyomás 1022 hPa
Látótávolság: 16.1 km
Derült ég

METAR: KICL 280255Z AUTO 00000KT 10SM CLR M05/M08 A3018 RMK AO2

Idő: 21:16 (03:16 UTC)


TAF: hiányzik

Meteorológiai megfigyelések és előrejelzések több, mint 4000 repülőtéren (METAR és TAF jelentéseket).

A térképen piros és sárga pontok jelzik az elérhető meteorológiai állomásokat.

Mozgassa az egeret a pont fölött, hogy megjelenjen az állomás neve.

Azután kattintson az időjárási megfigyelések és előrejelzések megtekintéséhez.

A térkép megváltoztatása: kattintson a fekete keresztel jelölt zöld gombra ráközelítéshez, a vonallal jelölt zöld gombra távolításhoz, vagy a zöld nyilakra a szomszédos térképek eléréséhez.


METAR-TAF: